Location: Emory University Observatory
(33.7903°N, 84.3267°W)
Time: 07:07:55
(UTC-04:00)

ISS - Pass Details

Date: 14 October 2017
Orbit: 401 x 408 km, 51.6° (Epoch: 19 October)

Event Time Altitude Azimuth Distance (km) Brightness Sun altitude
Rises 19:26:05 0° 327° (NNW) 2,322 0.4 -5.3°
Reaches altitude 10° 19:28:37 10° 347° (NNW) 1,461 -0.9 -5.8°
Maximum altitude 19:30:59 18° 33° (NNE) 1,065 -2.1 -6.3°
Drops below altitude 10° 19:33:21 10° 79° (E) 1,459 -1.7 -6.8°
Enters shadow 19:33:37 - 83° (E) 1,541 -1.6 -6.9°
